Weather in Sulak

Russia / Saratov Oblast     51°50′39″N   48°20′53″E
temp.,
°C
wind,
m/s
gust,
m/s
humid.,
%
clouds,
%
prec.,
mm/h
press.,
hPa
HPBL,
m
26 june, sun
sun2601:00+17n36860 0.0 101399
04:00+16nne38870 0.0 1013137
07:00+18nne48760 0.0 1015271
10:00+23nne58490 0.0 10151272
13:00+25n67460 0.0 10152052
16:00+24nne78410 0.0 10151662
19:00+20nne710560 0.0 1017915
22:00+15nne412670 0.0 1019318
27 june, mon
mon2701:00+13nne37750 0.0 1019124
04:00+12nne35800 0.0 102075
07:00+15ne35690 0.0 1021214
10:00+20n34510 0.0 10211055
13:00+23n34410 0.0 10191362
16:00+24nnw34410 0.0 10181294
19:00+24w34520 0.0 1017310
22:00+20wsw44650 0.0 101654
28 june, tue
tue2801:00+18w4978100 0.0 1015171
04:00+17nw35842 0.0 101485
07:00+20n34780 0.0 1014254
10:00+23nne566868 0.0 10141090
13:00+22nne785411 0.3 10151485
16:00+21nne89450 0.3 10161731
19:00+18ne78530 0.0 10181185
22:00+13ne511620 0.0 1020370
29 june, wed
wed2901:00+10ne36740 0.0 1020126
04:00+9nne34770 0.0 102178
07:00+12n35690 0.0 1021275
10:00+17n56480 0.0 10211581
13:00+19n674211 0.0 10201827
16:00+20n674458 0.0 10191955
19:00+19n465671 0.0 1019965
22:00+16nne346499 0.0 1019108
30 june, thu
thu3001:00+15nne2366100 0.0 101978
04:00+15wnw226697 0.0 101828
07:00+16nw356695 0.0 1018254
10:00+20nw5745100 0.0 10171653
13:00+22nw673952 0.0 10162166
16:00+23nw7938100 0.0 10142535
19:00+20nnw695439 0.0 1013627
22:00+16nw4106342 0.0 1013260